Location: *
(51.1248°S, 108.4023°W)
Time: 02:39:13
(UTC+00:00)

Cosmos 1544 - Pass Details

Date: 26 October 2021
Orbit: 467 x 486 km, 82.5° (Epoch: 03 December)

Event Time Altitude Azimuth Distance (km) Brightness Sun altitude
Exits shadow 09:05:59 31° 246° (WSW) 878 4.2 -20.5°
Drops below altitude 10° 09:09:08 10° 188° (S) 1,683 6.4 -20.2°
Sets 09:11:26 0° 177° (S) 2,575 7.7 -20.0°
